When you browse on this site, cookies collect data to enhance your experience and personalize the content and advertising you see.
Visit our Privacy Policy to learn more. By continuing to use the site, you agree to this use of cookies and data.
  • In Austria
  • List of Countries
  • For 7 days
  • Water Temperature
  • Satellite Maps
  • Weather Map
  • News
  • Weather Widgets
  • user-avatar
    Login

    Hourly Weather Canberra

    Today, 18 January, Friday

    Time Temperature Precipitation Wind Pressure Humidity
    00:00 +24°C° 0 mm 2 mps 707 mmHg 55%
    01:00 +23°C° 0 mm 1 mps 707 mmHg 58%
    02:00 +23°C° 0 mm 1 mps 707 mmHg 60%
    03:00 +23°C° 0 mm 1 mps 707 mmHg 62%
    04:00 +20°C° 0 mm 0 mps 707 mmHg 71%
    05:00 +23°C° 0 mm 1 mps 707 mmHg 67%
    06:00 +24°C° 0 mm 1 mps 707 mmHg 62%
    07:00 +26°C° 0 mm 2 mps 707 mmHg 58%
    08:00 +29°C° 0 mm 3 mps 708 mmHg 47%
    09:00 +34°C° 0 mm 4 mps 708 mmHg 35%
    10:00 +39°C° 0 mm 5 mps 708 mmHg 24%
    11:00 +40°C° 0 mm 5 mps 708 mmHg 21%
    12:00 +42°C° 0 mm 6 mps 708 mmHg 19%
    13:00 +44°C° 0 mm 6 mps 707 mmHg 16%
    14:00 +44°C° 0 mm 6 mps 707 mmHg 15%
    15:00 +44°C° 0 mm 6 mps 706 mmHg 15%
    16:00 +44°C° 0 mm 6 mps 706 mmHg 15%
    17:00 +41°C° 0.1 mm 5 mps 706 mmHg 19%
    18:00 +39°C° 0.1 mm 5 mps 706 mmHg 23%
    19:00 +36°C° 0.1 mm 4 mps 706 mmHg 27%
    20:00 +33°C° 0.2 mm 4 mps 706 mmHg 36%
    21:00 +30°C° 0.2 mm 3 mps 707 mmHg 44%
    22:00 +28°C° 0.2 mm 2 mps 707 mmHg 53%
    23:00 +27°C° 0.9 mm 2 mps 708 mmHg 60%

    Tomorrow, 19 January, Saturday

    Time Temperature Precipitation Wind Pressure Humidity
    00:00 +26°C° 0.9 mm 2 mps 708 mmHg 67%
    01:00 +25°C° 0.9 mm 1 mps 708 mmHg 74%
    02:00 +24°C° 0.1 mm 2 mps 708 mmHg 74%
    03:00 +24°C° 0.1 mm 2 mps 708 mmHg 74%
    04:00 +24°C° 0.1 mm 2 mps 708 mmHg 75%
    05:00 +25°C° 0 mm 1 mps 709 mmHg 72%
    06:00 +25°C° 0 mm 1 mps 709 mmHg 69%
    07:00 +26°C° 0 mm 1 mps 710 mmHg 67%
    08:00 +28°C° 0 mm 1 mps 711 mmHg 59%
    09:00 +30°C° 0 mm 1 mps 711 mmHg 51%
    10:00 +32°C° 0 mm 2 mps 712 mmHg 43%
    11:00 +34°C° 0 mm 2 mps 712 mmHg 41%
    12:00 +34°C° 0 mm 3 mps 712 mmHg 39%
    13:00 +35°C° 0 mm 4 mps 712 mmHg 37%
    14:00 +33°C° 0 mm 5 mps 711 mmHg 43%
    15:00 +30°C° 0 mm 5 mps 711 mmHg 50%
    16:00 +28°C° 0 mm 6 mps 711 mmHg 56%
    17:00 +26°C° 0 mm 6 mps 711 mmHg 61%
    18:00 +22°C° 0 mm 5 mps 711 mmHg 65%
    19:00 +20°C° 0 mm 4 mps 711 mmHg 69%
    20:00 +19°C° 0 mm 4 mps 712 mmHg 73%
    21:00 +18°C° 0 mm 4 mps 712 mmHg 76%
    22:00 +17°C° 0 mm 3 mps 713 mmHg 80%
    23:00 +16°C° 0 mm 3 mps 712 mmHg 81%

    Day after tomorrow, 20 January, Sunday

    Time Temperature Precipitation Wind Pressure Humidity
    00:00 +16°C° 0 mm 3 mps 712 mmHg 83%
    01:00 +16°C° 0 mm 2 mps 712 mmHg 85%
    02:00 +15°C° 0 mm 2 mps 712 mmHg 86%
    03:00 +15°C° 0 mm 2 mps 712 mmHg 88%
    04:00 +15°C° 0 mm 1 mps 712 mmHg 89%
    05:00 +16°C° 0 mm 1 mps 712 mmHg 84%
    06:00 +18°C° 0 mm 1 mps 713 mmHg 78%
    07:00 +19°C° 0 mm 2 mps 713 mmHg 73%
    08:00 +23°C° 0 mm 2 mps 713 mmHg 64%
    09:00 +25°C° 0 mm 2 mps 713 mmHg 55%
    10:00 +28°C° 0 mm 2 mps 713 mmHg 46%
    11:00 +30°C° 0 mm 2 mps 713 mmHg 41%
    12:00 +32°C° 0 mm 2 mps 713 mmHg 36%
    13:00 +35°C° 0 mm 2 mps 713 mmHg 32%
    14:00 +36°C° 0 mm 2 mps 712 mmHg 30%
    15:00 +36°C° 0 mm 2 mps 712 mmHg 28%
    16:00 +37°C° 0 mm 2 mps 712 mmHg 27%
    17:00 +34°C° 0 mm 3 mps 712 mmHg 38%
    18:00 +29°C° 0 mm 4 mps 711 mmHg 50%
    19:00 +26°C° 0 mm 6 mps 711 mmHg 61%
    20:00 +23°C° 0 mm 5 mps 712 mmHg 69%
    21:00 +21°C° 0 mm 4 mps 712 mmHg 76%
    22:00 +19°C° 0 mm 3 mps 712 mmHg 84%
    23:00 +19°C° 0 mm 3 mps 712 mmHg 84%

    21 January, Monday

    Time Temperature Precipitation Wind Pressure Humidity
    00:00 +19°C° 0 mm 3 mps 712 mmHg 84%
    01:00 +19°C° 0 mm 2 mps 712 mmHg 85%
    02:00 +19°C° 0 mm 2 mps 712 mmHg 86%
    03:00 +19°C° 0 mm 2 mps 712 mmHg 87%
    04:00 +20°C° 0 mm 1 mps 711 mmHg 89%
    05:00 +21°C° 0 mm 1 mps 712 mmHg 85%
    06:00 +22°C° 0 mm 1 mps 712 mmHg 82%
    07:00 +23°C° 0 mm 1 mps 712 mmHg 78%
    08:00 +25°C° 0 mm 2 mps 712 mmHg 69%
    09:00 +27°C° 0 mm 2 mps 712 mmHg 61%
    10:00 +29°C° 0 mm 2 mps 712 mmHg 52%
    11:00 +31°C° 0 mm 2 mps 712 mmHg 46%
    12:00 +34°C° 0 mm 2 mps 712 mmHg 40%
    13:00 +36°C° 0 mm 2 mps 711 mmHg 34%
    14:00 +36°C° 0 mm 2 mps 711 mmHg 34%
    15:00 +36°C° 0 mm 2 mps 711 mmHg 33%
    16:00 +36°C° 0 mm 2 mps 710 mmHg 32%
    17:00 +34°C° 0 mm 2 mps 710 mmHg 39%
    18:00 +31°C° 0 mm 2 mps 710 mmHg 47%
    19:00 +29°C° 0 mm 2 mps 710 mmHg 54%
    20:00 +27°C° 0 mm 2 mps 710 mmHg 63%
    21:00 +26°C° 0 mm 2 mps 710 mmHg 73%
    22:00 +24°C° 0 mm 2 mps 711 mmHg 82%
    23:00 +23°C° 0 mm 1 mps 710 mmHg 85%

    22 January, Tuesday

    Time Temperature Precipitation Wind Pressure Humidity
    00:00 +23°C° 0 mm 1 mps 710 mmHg 87%
    01:00 +23°C° 0 mm 1 mps 710 mmHg 90%
    02:00 +22°C° 0.1 mm 1 mps 710 mmHg 91%
    03:00 +22°C° 0.1 mm 1 mps 710 mmHg 91%
    04:00 +22°C° 0.1 mm 1 mps 710 mmHg 92%
    05:00 +23°C° 0 mm 1 mps 710 mmHg 86%
    06:00 +24°C° 0 mm 1 mps 710 mmHg 79%
    07:00 +25°C° 0 mm 1 mps 710 mmHg 73%
    08:00 +28°C° 0 mm 1 mps 710 mmHg 62%
    09:00 +31°C° 0 mm 2 mps 710 mmHg 51%
    10:00 +34°C° 0 mm 3 mps 710 mmHg 40%
    11:00 +35°C° 0 mm 3 mps 710 mmHg 37%
    12:00 +36°C° 0 mm 3 mps 709 mmHg 35%
    13:00 +37°C° 0 mm 3 mps 709 mmHg 32%
    14:00 +37°C° 0 mm 3 mps 708 mmHg 32%
    15:00 +37°C° 0 mm 3 mps 708 mmHg 32%
    16:00 +37°C° 0 mm 3 mps 707 mmHg 32%
    17:00 +35°C° 0 mm 2 mps 707 mmHg 35%
    18:00 +33°C° 0 mm 1 mps 707 mmHg 39%
    19:00 +29°C° 0 mm 0 mps 707 mmHg 43%
    20:00 +30°C° 0 mm 1 mps 707 mmHg 47%
    21:00 +29°C° 0 mm 1 mps 707 mmHg 52%
    22:00 +27°C° 0 mm 2 mps 707 mmHg 57%
    23:00 +26°C° 0.3 mm 1 mps 707 mmHg 62%

    23 January, Wednesday

    Time Temperature Precipitation Wind Pressure Humidity
    00:00 +26°C° 0.3 mm 1 mps 707 mmHg 67%
    01:00 +25°C° 0.3 mm 1 mps 706 mmHg 73%
    02:00 +24°C° 0 mm 1 mps 706 mmHg 74%
    03:00 +24°C° 0 mm 2 mps 706 mmHg 76%
    04:00 +24°C° 0 mm 2 mps 706 mmHg 78%
    05:00 +24°C° 0 mm 2 mps 707 mmHg 76%
    06:00 +25°C° 0 mm 2 mps 707 mmHg 74%
    07:00 +26°C° 0 mm 2 mps 708 mmHg 72%
    08:00 +28°C° 0 mm 2 mps 708 mmHg 62%
    09:00 +31°C° 0 mm 2 mps 708 mmHg 51%
    10:00 +35°C° 0 mm 2 mps 709 mmHg 41%
    11:00 +35°C° 0 mm 2 mps 708 mmHg 39%
    12:00 +36°C° 0 mm 2 mps 708 mmHg 37%
    13:00 +36°C° 0 mm 2 mps 708 mmHg 35%
    14:00 +35°C° 0.4 mm 3 mps 707 mmHg 38%
    15:00 +33°C° 0.4 mm 4 mps 707 mmHg 42%
    16:00 +32°C° 0.4 mm 5 mps 706 mmHg 45%
    17:00 +28°C° 0.4 mm 5 mps 706 mmHg 52%
    18:00 +26°C° 0.4 mm 4 mps 706 mmHg 59%
    19:00 +22°C° 0.4 mm 4 mps 706 mmHg 67%
    20:00 +21°C° 0.2 mm 3 mps 707 mmHg 73%
    21:00 +20°C° 0.2 mm 3 mps 707 mmHg 80%
    22:00 +19°C° 0.2 mm 2 mps 708 mmHg 87%
    23:00 +19°C° 0.3 mm 2 mps 708 mmHg 88%
    Show more